CW4427 Weather Reports


Display with metric or nautical units.
time (UTC)temp
F
wind
direction
speed
MPH
gust
MPH
rain 1hr
in
rain 24hr
in
rain mn
in
humidity
%
barometer
mb
20260507151908 63 130 2.0 8.0 0.00 0.16 0.00 66 1017.8
20260507150908 62 105 3.0 9.0 0.00 0.19 0.00 65 1017.9
20260507150408 62 36 1.0 7.0 0.00 0.19 0.00 61 1018.0
20260507145908 62 162 5.0 7.0 0.00 0.19 0.00 67 1018.0
20260507145407 61 91 2.0 7.0 0.00 0.19 0.00 65 1018.2
20260507144407 61 86 5.0 8.0 0.00 0.20 0.00 71 1018.3
20260507143907 61 338 2.0 8.0 0.00 0.21 0.00 71 1018.3
20260507142908 60 41 2.0 6.0 0.00 0.23 0.00 72 1017.9
20260507142407 60 294 1.0 7.0 0.00 0.25 0.00 76 1017.9
20260507141908 59 22 2.0 8.0 0.00 0.26 0.00 75 1017.8
20260507140908 59 355 3.0 9.0 0.00 0.29 0.00 78 1018.1
20260507140408 59 28 3.0 8.0 0.00 0.30 0.00 78 1018.1
20260507135907 59 315 2.0 5.0 0.00 0.32 0.00 79 1018.0
20260507135407 58 355 2.0 6.0 0.00 0.32 0.00 81 1017.9
20260507134908 58 15 3.0 6.0 0.00 0.33 0.00 82 1017.9
20260507134408 58 48 1.0 8.0 0.00 0.33 0.00 83 1017.9
20260507133908 57 5 1.0 8.0 0.00 0.34 0.00 83 1017.7
20260507133407 57 317 2.0 5.0 0.00 0.34 0.00 85 1017.8
20260507132907 57 326 2.0 5.0 0.00 0.34 0.00 87 1017.8
20260507132408 56 300 1.0 4.0 0.00 0.34 0.00 88 1017.8
20260507131908 56 15 0.0 4.0 0.00 0.34 0.00 88 1017.6
20260507131407 55 290 1.0 3.0 0.00 0.34 0.00 89 1017.6
20260507130907 55 280 0.0 4.0 0.00 0.34 0.00 89 1017.6
20260507124907 54 19 0.0 3.0 0.00 0.34 0.00 94 1017.3
20260507124407 53 19 0.0 3.0 0.00 0.34 0.00 94 1017.3
20260507123907 53 41 1.0 3.0 0.00 0.34 0.00 95 1017.3
20260507123407 53 350 0.0 0.0 0.00 0.34 0.00 96 1017.2
20260507122907 53 350 0.0 0.0 0.00 0.34 0.00 96 1017.1
20260507122407 52 350 0.0 0.0 0.00 0.34 0.00 96 1017.0
20260507121907 51 329 0.0 0.0 0.00 0.34 0.00 96 1017.0
20260507121407 51 329 0.0 0.0 0.00 0.34 0.00 96 1016.9
20260507120407 50 329 0.0 0.0 0.00 0.34 0.00 96 1016.7
20260507115907 50 329 0.0 1.0 0.00 0.34 0.00 96 1016.5
20260507114906 49 267 0.0 0.0 0.00 0.34 0.00 96 1016.5
20260507114406 48 259 0.0 0.0 0.00 0.34 0.00 96 1016.4
20260507113906 48 259 0.0 0.0 0.00 0.34 0.00 96 1016.3
20260507113406 48 259 0.0 0.0 0.00 0.34 0.00 96 1016.3
20260507112406 48 259 0.0 0.0 0.00 0.34 0.00 96 1016.3
20260507111406 48 345 0.0 0.0 0.00 0.34 0.00 96 1016.2
20260507110906 48 346 0.0 0.0 0.00 0.34 0.00 96 1016.3
20260507110406 48 345 0.0 0.0 0.00 0.34 0.00 96 1016.3
20260507105906 48 346 0.0 0.0 0.00 0.34 0.00 96 1016.1
20260507104906 49 345 0.0 0.0 0.00 0.37 0.00 96 1015.9
20260507103406 49 345 0.0 0.0 0.00 0.43 0.00 96 1016.2
20260507102906 49 345 0.0 0.0 0.00 0.44 0.00 96 1016.2
20260507102406 49 346 0.0 0.0 0.00 0.45 0.00 96 1016.1
20260507101906 49 345 0.0 0.0 0.00 0.46 0.00 95 1016.1
20260507100905 49 345 0.0 0.0 0.00 0.51 0.00 95 1015.9
20260507100405 49 346 0.0 0.0 0.00 0.52 0.00 95 1016.0
20260507095905 49 345 0.0 0.0 0.00 0.53 0.00 96 1016.1
20260507095405 49 345 0.0 0.0 0.00 0.55 0.00 96 1015.9
20260507094905 49 345 0.0 0.0 0.00 0.56 0.00 95 1016.1
20260507094405 49 345 0.0 0.0 0.00 0.57 0.00 95 1016.1
20260507093405 49 345 0.0 0.0 0.00 0.59 0.00 95 1016.0
20260507092905 49 345 0.0 0.0 0.00 0.60 0.00 95 1015.9
20260507092406 50 345 0.0 0.0 0.00 0.60 0.00 95 1015.7
20260507091906 50 345 0.0 0.0 0.00 0.61 0.00 95 1015.8
20260507091405 50 345 0.0 0.0 0.00 0.62 0.00 95 1015.7
20260507090905 50 345 0.0 0.0 0.00 0.62 0.00 95 1015.7
20260507085905 50 345 0.0 0.0 0.00 0.63 0.00 95 1015.6
20260507085405 51 345 0.0 0.0 0.00 0.63 0.00 95 1015.6
20260507084905 51 345 0.0 0.0 0.00 0.63 0.00 95 1015.5
20260507084405 51 345 0.0 0.0 0.00 0.63 0.00 95 1015.6
20260507083905 51 345 0.0 0.0 0.00 0.63 0.00 95 1015.4
20260507083404 51 345 0.0 0.0 0.00 0.63 0.00 95 1015.4
20260507082905 51 345 0.0 0.0 0.00 0.64 0.00 95 1015.3
20260507082405 52 345 0.0 0.0 0.00 0.65 0.00 95 1015.2
20260507081905 52 345 0.0 0.0 0.00 0.73 0.00 95 1015.3
20260507080905 51 345 0.0 0.0 0.00 0.83 0.00 95 1015.3
20260507080405 52 345 0.0 0.0 0.00 0.85 0.00 95 1015.6
20260507075905 52 345 0.0 0.0 0.00 0.87 0.00 95 1015.6
20260507075405 52 345 0.0 0.0 0.00 0.89 0.00 95 1015.6
20260507074905 52 345 0.0 0.0 0.00 0.90 0.00 95 1015.7
20260507074405 52 345 0.0 0.0 0.00 0.91 0.00 95 1015.6
20260507073905 52 345 0.0 0.0 0.00 0.92 0.00 95 1015.6
20260507073404 52 345 0.0 0.0 0.00 0.93 0.00 95 1015.6
20260507072904 52 345 0.0 0.0 0.00 0.93 0.00 95 1015.6
20260507072405 52 345 0.0 0.0 0.00 0.93 0.00 95 1015.7
20260507071905 52 345 0.0 0.0 0.00 0.94 0.00 95 1015.6
20260507071405 52 345 0.0 0.0 0.00 0.95 0.00 95 1015.6
20260507070405 52 345 0.0 0.0 0.00 0.95 0.00 95 1015.6
20260507065905 52 345 0.0 0.0 0.00 0.96 0.00 94 1015.7
20260507065405 52 345 0.0 0.0 0.00 0.98 0.00 95 1015.7
20260507063904 53 345 0.0 0.0 0.00 1.07 0.00 95 1015.8
20260507062904 53 345 0.0 0.0 0.00 1.11 0.00 94 1015.5
20260507062404 53 345 0.0 0.0 0.00 1.16 0.00 94 1015.7
20260507061904 53 345 0.0 0.0 0.00 1.16 0.00 94 1015.8
20260507061404 53 345 0.0 0.0 0.00 1.16 0.00 94 1016.0
20260507060905 53 345 0.0 0.0 0.00 1.16 0.00 94 1015.9
20260507055904 53 345 0.0 2.0 0.00 1.17 0.00 94 1015.8
20260507054904 53 345 0.0 4.0 0.00 1.17 0.00 94 1015.7
20260507054404 53 345 1.0 4.0 0.00 1.17 0.00 94 1015.5
20260507053905 53 355 2.0 3.0 0.00 1.17 0.00 94 1015.7
20260507052904 53 351 2.0 3.0 0.00 1.17 0.00 94 1015.5
20260507052405 53 336 0.0 2.0 0.00 1.17 0.00 94 1015.5
20260507051404 53 336 0.0 0.0 0.00 1.17 0.00 95 1015.6
20260507050904 53 336 0.0 0.0 0.00 1.17 0.00 95 1015.3
20260507050404 53 336 0.0 0.0 0.00 1.17 0.00 95 1015.2
20260507045904 53 336 0.0 0.0 0.00 1.17 0.00 95 1015.2
20260507045404 53 336 0.0 0.0 0.00 1.17 1.17 95 1015.2
20260507043904 53 336 0.0 0.0 0.00 1.17 1.17 95 1015.2
20260507043404 53 336 0.0 0.0 0.00 1.17 1.17 95 1015.2
20260507042904 53 336 0.0 0.0 0.00 1.17 1.17 95 1015.5
20260507042404 53 336 0.0 0.0 0.00 1.17 1.17 94 1015.4
20260507041904 53 336 0.0 0.0 0.00 1.17 1.17 95 1015.7
20260507041404 53 336 0.0 0.0 0.00 1.17 1.17 95 1015.4
20260507040404 53 336 0.0 0.0 0.00 1.17 1.17 95 1015.4
20260507035904 53 336 0.0 0.0 0.00 1.17 1.17 95 1015.5
20260507035403 53 336 0.0 0.0 0.00 1.17 1.17 95 1015.6
20260507034903 53 336 0.0 0.0 0.00 1.17 1.17 94 1015.6
20260507034404 53 336 0.0 0.0 0.00 1.17 1.17 94 1016.0
20260507033903 53 336 0.0 0.0 0.00 1.17 1.17 94 1016.0
20260507032904 53 336 0.0 0.0 0.00 1.17 1.17 94 1016.0
20260507032403 53 336 0.0 0.0 0.00 1.17 1.17 94 1016.0
20260507031903 53 336 0.0 0.0 0.00 1.17 1.17 94 1015.8
20260507031403 53 9 0.0 0.0 0.00 1.17 1.17 94 1015.7
20260507030903 53 9 0.0 0.0 0.00 1.17 1.17 94 1015.5
20260507030403 53 309 0.0 0.0 0.00 1.17 1.17 94 1015.7
20260507025903 53 53 0.0 0.0 0.00 1.17 1.17 93 1015.4
20260507025403 53 53 0.0 0.0 0.00 1.17 1.17 93 1015.5
20260507024903 53 53 0.0 0.0 0.00 1.17 1.17 93 1015.7
20260507023903 53 79 0.0 0.0 0.00 1.17 1.17 93 1015.3
20260507023402 53 351 0.0 0.0 0.00 1.17 1.17 93 1015.1
20260507022403 53 351 0.0 3.0 0.00 1.17 1.17 93 1015.1
20260507021903 53 30 1.0 2.0 0.00 1.17 1.17 93 1014.9
20260507021404 53 360 0.0 2.0 0.00 1.17 1.17 93 1015.0
20260507020902 53 360 1.0 2.0 0.00 1.17 1.17 93 1014.9
20260507015902 53 229 0.0 3.0 0.00 1.17 1.17 93 1015.4
20260507015402 53 88 0.0 4.0 0.00 1.17 1.17 93 1014.8
20260507014903 53 42 3.0 4.0 0.00 1.17 1.17 93 1014.5
20260507013902 53 57 1.0 3.0 0.00 1.17 1.17 93 1014.7
20260507013402 53 175 0.0 4.0 0.00 1.17 1.17 93 1014.8
20260507012903 53 315 1.0 8.0 0.00 1.17 1.17 93 1014.5
20260507012402 53 69 0.0 8.0 0.00 1.17 1.17 93 1014.1
20260507011902 53 32 2.0 6.0 0.00 1.17 1.17 93 1014.2
20260507011402 53 69 2.0 7.0 0.00 1.17 1.17 93 1014.3
20260507010902 53 348 0.0 7.0 0.00 1.17 1.17 93 1014.1
20260507010402 53 33 2.0 5.0 0.00 1.17 1.17 93 1014.1
20260507005902 53 36 4.0 5.0 0.00 1.17 1.17 93 1013.8
20260507005402 53 44 1.0 8.0 0.00 1.17 1.17 93 1014.2
20260507004902 53 50 3.0 8.0 0.00 1.17 1.17 93 1014.1
20260507004401 53 355 0.0 3.0 0.00 1.17 1.17 94 1014.9
20260507003902 53 355 0.0 4.0 0.00 1.17 1.17 94 1014.5
20260507003402 53 26 0.0 4.0 0.00 1.17 1.17 93 1014.5
20260507002902 54 24 2.0 4.0 0.00 1.17 1.17 93 1014.9
20260507001902 54 36 1.0 4.0 0.00 1.17 1.17 93 1015.0
20260507001402 54 22 1.0 4.0 0.00 1.17 1.17 93 1015.0
20260507000902 54 36 3.0 4.0 0.00 1.17 1.17 93 1014.7
20260507000401 54 355 0.0 4.0 0.00 1.17 1.17 93 1014.8
20260506234902 54 82 2.0 5.0 0.00 1.17 1.17 93 1014.4
20260506234402 54 30 2.0 7.0 0.00 1.17 1.17 93 1014.7
20260506233901 54 28 4.0 7.0 0.00 1.17 1.17 93 1014.9
20260506233402 54 15 0.0 3.0 0.00 1.17 1.17 93 1014.8
20260506232901 54 355 0.0 4.0 0.00 1.17 1.17 93 1015.0
20260506232401 54 355 1.0 6.0 0.00 1.17 1.17 93 1015.0
20260506231901 54 26 2.0 8.0 0.00 1.17 1.17 93 1014.6
20260506231401 54 25 4.0 8.0 0.00 1.17 1.17 93 1014.4
20260506230901 54 16 3.0 7.0 0.00 1.17 1.17 93 1014.6
20260506225901 54 34 0.0 5.0 0.00 1.17 1.17 93 1014.4
20260506225401 54 14 2.0 4.0 0.00 1.17 1.17 92 1014.6
20260506224901 54 342 3.0 4.0 0.00 1.17 1.17 92 1014.4
20260506224401 54 338 0.0 4.0 0.00 1.17 1.17 92 1014.1
20260506223901 54 38 1.0 4.0 0.00 1.17 1.17 92 1013.8
20260506223401 54 59 4.0 7.0 0.00 1.17 1.17 92 1013.6
20260506222901 54 331 2.0 7.0 0.00 1.17 1.17 92 1013.8
20260506222400 54 344 2.0 5.0 0.00 1.17 1.17 92 1013.4
20260506221901 54 11 3.0 6.0 0.00 1.17 1.17 92 1013.2
20260506220401 54 24 2.0 7.0 0.01 1.17 1.17 93 1013.1
20260506215901 54 11 1.0 7.0 0.01 1.17 1.17 92 1013.1
20260506215401 55 20 3.0 7.0 0.01 1.17 1.17 93 1013.2
20260506214901 55 16 4.0 7.0 0.02 1.17 1.17 93 1013.4
20260506214401 55 24 4.0 9.0 0.02 1.17 1.17 93 1013.3
20260506213901 54 318 1.0 9.0 0.02 1.17 1.17 93 1013.2
20260506213401 54 49 3.0 6.0 0.02 1.17 1.17 93 1013.7
20260506212901 55 38 2.0 5.0 0.02 1.17 1.17 93 1013.6
20260506212400 54 41 2.0 5.0 0.03 1.17 1.17 93 1013.1
20260506211901 54 19 0.0 7.0 0.03 1.17 1.17 93 1013.6
20260506211400 54 338 4.0 7.0 0.04 1.17 1.17 93 1014.3
20260506210900 55 298 0.0 4.0 0.04 1.16 1.16 93 1014.6
20260506210400 54 5 3.0 4.0 0.05 1.17 1.16 93 1014.6
20260506205900 54 5 0.0 3.0 0.06 1.17 1.16 93 1014.9
20260506204400 54 29 0.0 3.0 0.05 1.16 1.15 93 1014.4
20260506203900 54 360 0.0 4.0 0.05 1.16 1.15 92 1014.5
20260506202900 54 15 3.0 4.0 0.05 1.16 1.15 92 1014.3
20260506202400 54 5 2.0 4.0 0.04 1.15 1.14 92 1014.3
20260506200900 55 92 0.0 3.0 0.02 1.13 1.12 91 1014.6
20260506200400 55 311 0.0 3.0 0.01 1.12 1.11 91 1015.0
20260506195900 55 68 3.0 3.0 0.00 1.11 1.10 90 1014.8
20260506194859 55 335 0.0 5.0 0.00 1.11 1.10 90 1015.3
20260506194359 55 320 2.0 5.0 0.00 1.11 1.10 90 1015.2
20260506193359 55 28 0.0 5.0 0.00 1.11 1.10 91 1015.1
20260506192859 55 342 0.0 6.0 0.00 1.11 1.10 91 1015.0
20260506192400 55 13 2.0 6.0 0.00 1.11 1.10 91 1015.1
20260506191859 55 317 1.0 4.0 0.00 1.11 1.10 91 1015.3
20260506191359 56 9 1.0 4.0 0.00 1.11 1.10 91 1015.2
20260506190900 55 342 2.0 4.0 0.00 1.11 1.10 91 1015.1
20260506190359 55 47 3.0 5.0 0.00 1.11 1.10 90 1015.0
20260506185859 55 30 1.0 5.0 0.00 1.11 1.10 90 1015.3
20260506185359 55 30 3.0 6.0 0.00 1.11 1.10 90 1015.1
20260506184859 55 9 2.0 6.0 0.00 1.11 1.10 90 1015.0
20260506184359 55 5 1.0 5.0 0.00 1.11 1.10 90 1014.8
20260506183859 55 22 2.0 5.0 0.00 1.11 1.10 91 1014.7
20260506183359 55 26 2.0 5.0 0.00 1.11 1.10 91 1014.6
20260506182359 55 233 1.0 6.0 0.00 1.11 1.10 91 1014.8
20260506181859 55 47 3.0 9.0 0.00 1.11 1.10 90 1014.6
20260506180859 55 138 3.0 9.0 0.01 1.11 1.10 91 1014.5
20260506180359 55 327 2.0 9.0 0.01 1.11 1.10 91 1014.6
20260506175859 55 34 3.0 9.0 0.01 1.11 1.10 92 1014.6
20260506175359 55 64 3.0 9.0 0.01 1.11 1.10 92 1014.7
20260506174359 54 282 1.0 7.0 0.01 1.11 1.10 93 1014.7
20260506173859 54 22 2.0 7.0 0.02 1.11 1.10 93 1014.4
20260506173359 54 15 3.0 6.0 0.02 1.11 1.10 93 1014.6
20260506172859 53 17 3.0 7.0 0.03 1.11 1.10 93 1014.9
20260506172359 53 360 2.0 8.0 0.03 1.11 1.10 94 1014.9
20260506171859 53 18 2.0 8.0 0.03 1.11 1.10 94 1014.7
20260506171359 53 5 4.0 4.0 0.04 1.11 1.10 94 1015.1
20260506170358 53 360 1.0 8.0 0.04 1.10 1.09 94 1015.0
20260506165859 53 355 0.0 8.0 0.04 1.10 1.09 94 1015.0
20260506165359 53 5 0.0 5.0 0.05 1.10 1.09 94 1015.0
20260506164859 52 355 2.0 5.0 0.05 1.10 1.09 94 1015.0
20260506164358 52 26 2.0 6.0 0.05 1.10 1.09 94 1015.0
20260506163859 52 313 3.0 6.0 0.04 1.09 1.08 94 1015.0
20260506163359 53 283 2.0 4.0 0.05 1.10 1.08 95 1015.3
20260506162858 52 5 0.0 7.0 0.04 1.09 1.07 95 1014.9
20260506162359 52 45 3.0 7.0 0.05 1.09 1.07 95 1014.7
20260506161858 52 38 5.0 5.0 0.06 1.11 1.07 94 1014.6
20260506161359 52 355 1.0 6.0 0.06 1.12 1.06 94 1014.7
20260506160359 52 31 4.0 10.0 0.07 1.15 1.05 95 1014.4
20260506155858 52 341 4.0 10.0 0.07 1.15 1.05 95 1014.5
20260506154858 51 5 1.0 8.0 0.07 1.16 1.04 95 1014.1
20260506154359 51 47 4.0 8.0 0.07 1.21 1.04 95 1014.4
20260506153859 52 36 3.0 8.0 0.08 1.26 1.04 94 1013.9
20260506153359 52 12 0.0 8.0 0.08 1.40 1.03 94 1014.4
20260506152858 52 9 3.0 9.0 0.09 1.49 1.03 94 1014.1
20260506152359 52 14 3.0 9.0 0.10 1.50 1.02 94 1014.4